{"data":{"norad_id":63053,"intl_designator":"2025-035B","name":"STARLINK-11563 [DTC]","alt_names":[],"object_type":"PAYLOAD","status":"ACTIVE","operator":null,"country":"US","launch_date":"2025-02-21","launch_site_code":"AFETR","launch_vehicle":null,"mission":null,"orbit_class":"UNKNOWN","rcs_meters":null,"size_class":null,"mass_kg":null,"dimensions":null,"purposes":["comms"],"wikipedia_slug":null,"has_3d_model":false,"image_url":null,"decayed_at":null,"tle_current":{"epoch":"2026-09-21T02:07:28.468416Z","epoch_age_seconds":114368,"freshness":"FRESH","line1":"1 63053U 25035B   26264.08852394  .00131811  00000+0  10122-2 0  9993","line2":"2 63053  42.9999 277.4004 0001803 259.8253 100.2411 15.70894900 91845","mean_motion":15.708949,"eccentricity":0.0001803,"inclination_deg":42.9999,"raan_deg":277.4004,"arg_perigee_deg":259.8253,"mean_anomaly_deg":100.2411,"bstar":0.0010122,"rev_number":9184,"period_min":91.667494750922,"perigee_km":355.12392579393,"apogee_km":357.55237753362,"semimajor_km":6734.4751516638,"source":"CELESTRAK","updated_at":"2026-09-22T09:00:49.749338Z"}}}